Time,TemperatureF,DewpointF,PressureIn,WindDirection,WindDirectionDegrees,WindSpeedMPH,WindSpeedGustMPH,Humidity,HourlyPrecipIn,Conditions,Clouds,dailyrainin,SolarRadiationWatts/m^2,SoftwareType,DateUTC
2013-07-10 00:01:00,64.0,33.0,-100.00,WNW,303,1.0,3.0,31,0.00,,,0.00,0.000000,,2013-07-10 07:01:00,
2013-07-10 00:11:00,64.0,33.0,-100.00,WNW,303,1.0,3.0,31,0.00,,,0.00,0.000000,,2013-07-10 07:11:00,
2013-07-10 00:22:00,64.0,33.0,-100.00,WNW,303,1.0,3.0,31,0.00,,,0.00,0.000000,,2013-07-10 07:22:00,
2013-07-10 00:43:00,64.0,31.0,-100.00,NNW,332,2.0,5.0,29,0.00,,,0.00,0.000000,,2013-07-10 07:43:00,
2013-07-10 00:53:00,64.0,31.0,-100.00,NNW,332,2.0,5.0,29,0.00,,,0.00,0.000000,,2013-07-10 07:53:00,
2013-07-10 01:01:00,64.0,31.0,-100.00,NNW,332,2.0,5.0,29,0.00,,,0.00,0.000000,,2013-07-10 08:01:00,
2013-07-10 01:11:00,64.0,31.0,-100.00,NNW,332,2.0,5.0,29,0.00,,,0.00,0.000000,,2013-07-10 08:11:00,
2013-07-10 01:22:00,64.0,31.0,-100.00,NNW,332,2.0,5.0,29,0.00,,,0.00,0.000000,,2013-07-10 08:22:00,
2013-07-10 01:53:00,62.0,31.0,-100.00,West,274,4.0,6.0,31,0.00,,,0.00,0.000000,,2013-07-10 08:53:00,
2013-07-10 02:02:00,62.0,31.0,-100.00,West,274,4.0,6.0,31,0.00,,,0.00,0.000000,,2013-07-10 09:02:00,
2013-07-10 02:12:00,62.0,31.0,-100.00,West,274,4.0,6.0,31,0.00,,,0.00,0.000000,,2013-07-10 09:12:00,
2013-07-10 02:21:00,62.0,31.0,-100.00,West,274,4.0,6.0,31,0.00,,,0.00,0.000000,,2013-07-10 09:21:00,
2013-07-10 02:23:00,63.0,30.0,-100.00,NNE,18,3.0,6.0,29,0.00,,,0.00,0.000000,,2013-07-10 09:23:00,
2013-07-10 02:43:00,63.0,30.0,-100.00,NNE,18,3.0,6.0,29,0.00,,,0.00,0.000000,,2013-07-10 09:43:00,
2013-07-10 02:53:00,63.0,30.0,-100.00,NNE,18,3.0,6.0,29,0.00,,,0.00,0.000000,,2013-07-10 09:53:00,
2013-07-10 03:01:00,63.0,30.0,-100.00,NNE,18,3.0,6.0,29,0.00,,,0.00,0.000000,,2013-07-10 10:01:00,
2013-07-10 03:13:00,63.0,30.0,-100.00,NNE,18,3.0,6.0,29,0.00,,,0.00,0.000000,,2013-07-10 10:13:00,
2013-07-10 03:51:00,-999.0,-99.9,-100.00,ENE,59,1.0,4.0,-999,-99.99,,,-99.99,0.000000,,2013-07-10 10:51:00,
2013-07-10 04:00:00,-999.0,-99.9,-100.00,ENE,59,1.0,4.0,-999,-99.99,,,-99.99,0.000000,,2013-07-10 11:00:00,
2013-07-10 04:11:00,62.0,29.0,-100.00,ENE,59,1.0,4.0,29,0.00,,,0.00,0.000000,,2013-07-10 11:11:00,
2013-07-10 04:22:00,62.0,29.0,-100.00,ENE,59,1.0,4.0,29,0.00,,,0.00,0.000000,,2013-07-10 11:22:00,
2013-07-10 12:42:00,88.0,35.0,-100.00,SSW,209,6.0,17.0,15,-99.99,,,0.00,1318.000000,,2013-07-10 19:42:00,
2013-07-10 12:53:00,88.0,35.0,-100.00,SSW,209,6.0,17.0,15,-99.99,,,0.00,1318.000000,,2013-07-10 19:53:00,
2013-07-10 13:01:00,88.0,35.0,-100.00,SSW,209,6.0,17.0,15,-99.99,,,0.00,1318.000000,,2013-07-10 20:01:00,
2013-07-10 13:11:00,88.0,35.0,-100.00,SSW,209,6.0,17.0,15,-99.99,,,0.00,1318.000000,,2013-07-10 20:11:00,
2013-07-10 13:22:00,88.0,35.0,-100.00,SSW,209,6.0,17.0,15,-99.99,,,0.00,1318.000000,,2013-07-10 20:22:00,
2013-07-10 13:43:00,87.0,34.0,-100.00,SW,219,8.0,21.0,15,0.00,,,0.00,845.000000,,2013-07-10 20:43:00,
2013-07-10 13:52:00,87.0,34.0,-100.00,SW,219,8.0,21.0,15,0.00,,,0.00,845.000000,,2013-07-10 20:52:00,
2013-07-10 14:01:00,87.0,34.0,-100.00,SW,219,8.0,21.0,15,0.00,,,0.00,845.000000,,2013-07-10 21:01:00,
2013-07-10 14:11:00,87.0,34.0,-100.00,SW,219,8.0,21.0,15,0.00,,,0.00,845.000000,,2013-07-10 21:11:00,
2013-07-10 14:21:00,87.0,34.0,-100.00,SW,219,8.0,21.0,15,0.00,,,0.00,845.000000,,2013-07-10 21:21:00,
2013-07-10 14:52:00,85.0,35.0,-100.00,SW,222,7.0,24.0,17,0.00,,,0.00,846.000000,,2013-07-10 21:52:00,
2013-07-10 15:01:00,85.0,35.0,-100.00,SW,222,7.0,24.0,17,0.00,,,0.00,846.000000,,2013-07-10 22:01:00,
2013-07-10 15:11:00,85.0,35.0,-100.00,SW,222,7.0,24.0,17,0.00,,,0.00,846.000000,,2013-07-10 22:11:00,
2013-07-10 15:21:00,85.0,35.0,-100.00,SW,222,7.0,24.0,17,0.00,,,0.00,846.000000,,2013-07-10 22:21:00,
2013-07-10 15:53:00,90.0,39.0,-100.00,SW,214,6.0,15.0,17,0.00,,,0.00,1164.000000,,2013-07-10 22:53:00,
2013-07-10 16:11:00,90.0,39.0,-100.00,SW,214,6.0,15.0,17,0.00,,,0.00,1164.000000,,2013-07-10 23:11:00,
2013-07-10 16:21:00,90.0,39.0,-100.00,SW,214,6.0,15.0,17,0.00,,,0.00,1164.000000,,2013-07-10 23:21:00,
2013-07-10 16:52:00,81.0,41.0,-100.00,SW,220,5.0,14.0,24,-99.99,,,0.00,686.000000,,2013-07-10 23:52:00,
2013-07-10 17:01:00,81.0,41.0,-100.00,SW,220,5.0,14.0,24,-99.99,,,0.00,686.000000,,2013-07-11 00:01:00,
2013-07-10 17:11:00,81.0,41.0,-100.00,SW,220,5.0,14.0,24,-99.99,,,0.00,686.000000,,2013-07-11 00:11:00,
2013-07-10 17:22:00,81.0,41.0,-100.00,SW,220,5.0,14.0,24,-99.99,,,0.00,686.000000,,2013-07-11 00:22:00,
2013-07-10 17:43:00,81.0,41.0,-100.00,SW,219,4.0,15.0,24,0.00,,,0.00,453.000000,,2013-07-11 00:43:00,
2013-07-10 17:52:00,81.0,41.0,-100.00,SW,219,4.0,15.0,24,0.00,,,0.00,453.000000,,2013-07-11 00:52:00,
2013-07-10 18:01:00,81.0,41.0,-100.00,SW,219,4.0,15.0,24,0.00,,,0.00,453.000000,,2013-07-11 01:01:00,
2013-07-10 18:11:00,81.0,41.0,-100.00,SW,219,4.0,15.0,24,0.00,,,0.00,453.000000,,2013-07-11 01:11:00,
2013-07-10 18:22:00,81.0,41.0,-100.00,SW,219,4.0,15.0,24,0.00,,,0.00,453.000000,,2013-07-11 01:22:00,
2013-07-10 18:43:00,81.0,40.0,-100.00,SW,216,5.0,10.0,23,0.00,,,0.00,470.000000,,2013-07-11 01:43:00,
2013-07-10 18:52:00,81.0,40.0,-100.00,SW,216,5.0,10.0,23,0.00,,,0.00,470.000000,,2013-07-11 01:52:00,
2013-07-10 19:02:00,81.0,40.0,-100.00,SW,216,5.0,10.0,23,0.00,,,0.00,470.000000,,2013-07-11 02:02:00,
2013-07-10 19:11:00,81.0,40.0,-100.00,SW,216,5.0,10.0,23,0.00,,,0.00,470.000000,,2013-07-11 02:11:00,
2013-07-10 19:22:00,81.0,40.0,-100.00,SW,216,5.0,10.0,23,0.00,,,0.00,470.000000,,2013-07-11 02:22:00,
2013-07-10 19:43:00,75.0,39.0,-100.00,SW,223,3.0,12.0,27,0.00,,,0.00,267.000000,,2013-07-11 02:43:00,
2013-07-10 19:53:00,75.0,39.0,-100.00,SW,223,3.0,12.0,27,0.00,,,0.00,267.000000,,2013-07-11 02:53:00,
2013-07-10 20:01:00,75.0,39.0,-100.00,SW,223,3.0,12.0,27,0.00,,,0.00,267.000000,,2013-07-11 03:01:00,
2013-07-10 20:11:00,75.0,39.0,-100.00,SW,223,3.0,12.0,27,0.00,,,0.00,267.000000,,2013-07-11 03:11:00,
2013-07-10 20:21:00,75.0,39.0,-100.00,SW,223,3.0,12.0,27,0.00,,,0.00,267.000000,,2013-07-11 03:21:00,
2013-07-10 20:52:00,69.0,36.0,-100.00,WSW,258,2.0,7.0,30,0.00,,,0.00,43.000000,,2013-07-11 03:52:00,
2013-07-10 21:01:00,69.0,36.0,-100.00,WSW,258,2.0,7.0,30,0.00,,,0.00,43.000000,,2013-07-11 04:01:00,
2013-07-10 21:11:00,69.0,36.0,-100.00,WSW,258,2.0,7.0,30,0.00,,,0.00,43.000000,,2013-07-11 04:11:00,
2013-07-10 21:22:00,69.0,36.0,-100.00,WSW,258,2.0,7.0,30,0.00,,,0.00,43.000000,,2013-07-11 04:22:00,
2013-07-10 21:43:00,66.0,38.0,-100.00,NE,40,2.0,6.0,35,0.00,,,0.00,2.000000,,2013-07-11 04:43:00,
2013-07-10 21:53:00,66.0,38.0,-100.00,NE,40,2.0,6.0,35,0.00,,,0.00,2.000000,,2013-07-11 04:53:00,
2013-07-10 22:01:00,66.0,38.0,-100.00,NE,40,2.0,6.0,35,0.00,,,0.00,2.000000,,2013-07-11 05:01:00,
2013-07-10 22:12:00,66.0,38.0,-100.00,NE,40,2.0,6.0,35,0.00,,,0.00,2.000000,,2013-07-11 05:12:00,
2013-07-10 22:22:00,66.0,38.0,-100.00,NE,40,2.0,6.0,35,0.00,,,0.00,2.000000,,2013-07-11 05:22:00,
2013-07-10 22:43:00,66.0,35.0,-100.00,ESE,111,3.0,6.0,32,0.00,,,0.00,0.000000,,2013-07-11 05:43:00,
2013-07-10 22:52:00,66.0,35.0,-100.00,ESE,111,3.0,6.0,32,0.00,,,0.00,0.000000,,2013-07-11 05:52:00,
2013-07-10 23:01:00,66.0,35.0,-100.00,ESE,111,3.0,6.0,32,0.00,,,0.00,0.000000,,2013-07-11 06:01:00,
2013-07-10 23:11:00,66.0,35.0,-100.00,ESE,111,3.0,6.0,32,0.00,,,0.00,0.000000,,2013-07-11 06:11:00,
2013-07-10 23:22:00,66.0,35.0,-100.00,ESE,111,3.0,6.0,32,0.00,,,0.00,0.000000,,2013-07-11 06:22:00,
2013-07-10 23:43:00,65.0,35.0,-100.00,SW,225,1.0,6.0,33,0.00,,,0.00,0.000000,,2013-07-11 06:43:00,
2013-07-10 23:53:00,65.0,35.0,-100.00,SW,225,1.0,6.0,33,0.00,,,0.00,0.000000,,2013-07-11 06:53:00,